Regional Weather Roundup
Issued by NWS

Home | Current Version | Previous Version | Graphics & Text | Print | Product List | Glossary On
Versions: 1 2 3 4 5 6 7 8 9 10 11 12 13 14 15 16 17 18 19 20 21 22 23 24 25 26 27 28 29 30 31 32 33 34 35 36 37 38 39 40 41 42 43 44 45 46 47 48 49 50
000
ASUS43 KOAX 200710
RWRNE

WEATHER ROUNDUP FOR NEBRASKA
NATIONAL WEATHER SERVICE OMAHA NE
200 AM CDT THU JUL 20 2017

NOTES: SATELLITE DATA IS BEING USED TO AUGMENT CLOUD COVER ABOVE
       12000 FEET.
       "FAIR" INDICATES FEW OR NO CLOUDS BELOW 12,000 FEET WITH NO
       SIGNIFICANT WEATHER AND/OR OBSTRUCTIONS TO VISIBILITY.


NEZ001>004-019>022-054>056-200800-
NEBRASKA PANHANDLE

CITY           SKY/WX    TMP DP  RH WIND       PRES   REMARKS
SCOTTSBLUFF    CLOUDY    68  63  84 N14       30.09F
ALLIANCE       LGT RAIN  68  65  90 NE18      30.10F
CHADRON        RAIN      69  64  84 S22G33    30.14R
GORDON         TSTM      70  66  89 S10G16    30.16R
KIMBALL        CLOUDY    67  63  85 NW13      30.18F
SIDNEY         PTCLDY    73  59  61 NW15      30.15R
$$

NEZ057>060-069>072-079>082-200800-
SOUTHWEST NEBRASKA

CITY           SKY/WX    TMP DP  RH WIND       PRES   REMARKS
NORTH PLATTE   CLOUDY    81  66  60 NE15G22   30.02R
IMPERIAL       MOCLDY    74  60  61 VRB3      30.01F
LEXINGTON      PTCLDY    78  62  59 S8        29.99F
MCCOOK         CLOUDY    81  58  45 S9G17     29.98S
OGALLALA       MOCLDY    79  59  50 NE18      30.04R
$$

NEZ005>010-023>029-035>040-094-200800-
NORTH CENTRAL NEBRASKA

CITY           SKY/WX    TMP DP  RH WIND       PRES   REMARKS
VALENTINE      CLOUDY    76  66  71 CALM      30.00S
AINSWORTH      CLOUDY    76  65  69 W3        30.00F
BROKEN BOW     CLOUDY    78  66  66 N3        30.06R
O`NEILL        CLOUDY    83  60  46 S10G23    29.94R
ORD            CLOUDY    79  65  62 CALM      30.01F
THEDFORD       TSTM      70  66  88 S5        30.11R
$$

NEZ041-046>049-061>064-073>077-083>087-200800-
SOUTH CENTRAL NEBRASKA

CITY           SKY/WX    TMP DP  RH WIND       PRES   REMARKS
GRAND ISLAND   CLOUDY    79  66  64 VRB3      30.00R
AURORA         CLOUDY    77  67  71 S7        29.98F
HASTINGS       CLOUDY    78  63  59 S6        30.00R
HEBRON         CLEAR     82  69  64 S12       29.98F
HOLDREGE       CLOUDY    79  60  52 S10       30.00S
KEARNEY        PTCLDY    80  63  55 SW10      29.99F
YORK           CLOUDY    75  68  78 S8        29.98F
$$

NEZ011>018-030>034-042>045-200800-
NORTHEAST NEBRASKA

CITY           SKY/WX    TMP DP  RH WIND       PRES   REMARKS
NORFOLK        CLOUDY    82  66  58 W7        29.98F
ALBION         CLOUDY    81  65  58 CALM      30.00F
BLAIR          RAIN      80  71  72 S14       29.94F
COLUMBUS       CLOUDY    81  69  67 CALM      29.99R
FREMONT        CLOUDY    79  72  78 CALM      29.97S
TEKAMAH        CLOUDY    81  75  82 SW13      29.90F
WAYNE          CLOUDY    86  71  60 SW28G36   29.88F HX  91
$$

NEZ050>053-065>068-078-088>093-200800-
SOUTHEAST NEBRASKA

CITY           SKY/WX    TMP DP  RH WIND       PRES   REMARKS
LINCOLN        CLEAR     83  69  62 S13       29.96S
OMAHA EPPLEY   CLOUDY    84  72  67 S9        29.94S
BEATRICE       CLEAR     82  69  65 S9        29.98S
NEBRASKA CITY  CLOUDY    79  75  88 S10       29.98R
PLATTSMOUTH    MOCLDY    81  71  71 S15       29.96S
$$

NEZ044-045-051>053-067-200800-
OMAHA AREA

CITY           SKY/WX    TMP DP  RH WIND       PRES   REMARKS
OMAHA EPPLEY   CLOUDY    84  72  67 S9        29.94S
BLAIR          RAIN      80  71  72 S14       29.94F
FREMONT        CLOUDY    79  72  78 CALM      29.97S
MILLARD        CLOUDY    82  73  74 CALM      29.96S
OFFUTT AFB     CLOUDY    79  73  80 SE6       29.95S
PLATTSMOUTH    MOCLDY    81  71  71 S15       29.96S
WAHOO          FAIR      79  72  79 SW5       29.96F
$$




USA.gov is the U.S. government's official web portal to all federal, state and local government web resources and services.